Regional Weather Roundup
Issued by NWS

Home | Current Version | Previous Version | Text Only | Print | Product List | Glossary Off
Versions: 1 2 3 4 5 6 7 8 9 10 11 12 13 14 15 16 17 18 19 20 21 22 23 24 25 26 27 28 29 30 31 32 33 34 35 36 37 38 39 40 41 42 43 44 45 46 47 48 49 50

980
ASUS43 KDMX 241801
RWRIA

WEATHER ROUNDUP FOR IOWA
NATIONAL WEATHER SERVICE DES MOINES IA
1200 PM CST FRI NOV 24 2017

NOTE: "FAIR" INDICATES FEW OR NO CLOUDS BELOW 12,000 FEET WITH NO
SIGNIFICANT WEATHER AND/OR OBSTRUCTIONS TO VISIBILITY.

* - THESE STATIONS ARE NOT NWS STATIONS...THUS NOT UNDER NWS
QUALITY CONTROL.  THEY ALSO DO NOT REPORT WEATHER SUCH
AS PRECIPITATION OR FOG.

IAZ001>003-012>014-020>022-031>034-043>046-241900-
   NORTHWEST IOWA

CITY           SKY/WX    TMP DP  RH WIND       PRES   REMARKS
CARROLL *      SUNNY     64  41  42 W16G22    29.45R
CHEROKEE *     SUNNY     62  41  46 NW14G24   29.49R
DENISON *      SUNNY     64  41  42 W15       29.48R
LE MARS *      MOSUNNY   61  41  48 NW17G31   29.52R
ORANGE CITY *  SUNNY     61  43  51 NW16G29   29.51R
SHELDON *      MOSUNNY   57  39  51 N28G38    29.49R
SIOUX CITY     SUNNY     64  41  42 NW36G43   29.50R
6HR MIN TEMP:  33; 6HR MAX TEMP:  64; 6HR PCP: TRACE;

SPENCER        LGT RAIN  59  41  51 NW22G35   29.47R
6HR MIN TEMP:  37; 6HR MAX TEMP:  63; 6HR PCP: TRACE;

STORM LAKE *   SUNNY     61  41  48 W26       29.46R
$$

IAZ055>058-069>071-079>083-090>094-241900-
   SOUTHWEST IOWA

CITY           SKY/WX    TMP DP  RH WIND       PRES   REMARKS
ATLANTIC *     SUNNY     66  41  39 W21       29.46F
AUDUBON *      SUNNY     64  41  42 SW9G20    29.46S
CLARINDA *     SUNNY     68  41  37 SW16G23     N/A
COUNCIL BLFS * SUNNY     66  41  39 W12G18    29.48F
CRESTON *      SUNNY     66  41  39 SW21      29.48F
HARLAN  *      SUNNY     66  41  39 SW13G20   29.49F
LAMONI         SUNNY     66  40  38 SW22G28   29.49F
6HR MIN TEMP:  46; 6HR MAX TEMP:  67;

RED OAK *      SUNNY     68  43  40 SW13G20   29.48F
SHENANDOAH *   SUNNY     70  41  35 SW17      29.49F
$$

IAZ047>049-059>061-072>074-084-241900-
   CENTRAL IOWA

CITY           SKY/WX    TMP DP  RH WIND       PRES   REMARKS
AMES           SUNNY     65  42  43 SW17      29.42F
6HR MIN TEMP:  38; 6HR MAX TEMP:  65;

ANKENY *       SUNNY     66  41  39 SW13G21   29.44F
BOONE *        SUNNY     64  41  42 SW16G24   29.41F
CHARITON *     SUNNY     66  39  37 SW21G30   29.46F
DES MOINES     MOSUNNY   67  40  37 SW15      29.44F
6HR MIN TEMP:  50; 6HR MAX TEMP:  67;

GRINNELL*      SUNNY     64  38  38 SW23      29.45F
KNOXVILLE *    SUNNY     66  37  34 SW18G28   29.43F
MARSHALLTOWN   SUNNY     64  40  41 SW18G26   29.41F
6HR MIN TEMP:  46; 6HR MAX TEMP:  64;

NEWTON *       SUNNY     66  39  37 SW20G26   29.43F
PELLA *        SUNNY     65  37  34 SW12G21   29.46F
$$

IAZ004>006-015-016-023>025-035-036-241900-
   NORTH CENTRAL IOWA

CITY           SKY/WX    TMP DP  RH WIND       PRES   REMARKS
ALGONA *       SUNNY     63  43  48 NW13G20   29.41S
CLARION *      SUNNY     61  43  51 W17G23    29.41F
ESTHERVILLE    MOSUNNY   58  42  55 NW16      29.43R
6HR MIN TEMP:  34; 6HR MAX TEMP:  62;

FORT DODGE *   SUNNY     62  43  49 SW13      29.40F
MASON CITY     SUNNY     58  41  53 SW14      29.39F
6HR MIN TEMP:  37; 6HR MAX TEMP:  58;

FOREST CITY *    N/A     59  41  51 W9        29.39F
WEBSTER CITY * SUNNY     63  41  45 W14G23    29.40R
IOWA FALLS *     N/A     63  42  47 SW18      29.42S
$$

IAZ007>011-017>019-026>030-037>042-050>054-066-241900-
   NORTHEAST IOWA

CITY           SKY/WX    TMP DP  RH WIND       PRES   REMARKS
CEDAR RAPIDS   SUNNY     68  38  33 SW21G28   29.41F
6HR MIN TEMP:  42; 6HR MAX TEMP:  68;

CHARLES CITY * SUNNY     61  41  48 SW16G24   29.40S
CLINTON *      SUNNY     64  39  39 SW23G29   29.48F
DECORAH *      SUNNY     59  39  47 SW12G22   29.37F
DUBUQUE        SUNNY     62  38  40 S23G32    29.43F
6HR MIN TEMP:  35; 6HR MAX TEMP:  62;

MONTICELLO *   SUNNY     66  39  37 S23       29.42F
OELWEIN *      SUNNY     63  41  45 SW20      29.40F
WATERLOO       SUNNY     63  38  39 SW18G25   29.40F
6HR MIN TEMP:  42; 6HR MAX TEMP:  63;

$$

IAZ064-065-067-068-078-241900-
   EAST CENTRAL IOWA

CITY           SKY/WX    TMP DP  RH WIND       PRES   REMARKS
DAVENPORT      SUNNY     64  37  36 S22G31    29.50F
6HR MIN TEMP:  42; 6HR MAX TEMP:  64;

IOWA CITY      SUNNY     70  39  32 SW16G26   29.46F
6HR MIN TEMP:  37; 6HR MAX TEMP:  70;

MT. PLEASANT * SUNNY     68  36  30 S25G31    29.50F
MUSCATINE *    SUNNY     68  37  32 SW26G36   29.47F
QUAD CITIES    SUNNY     66  37  34 S23G35    29.48F
6HR MIN TEMP:  44; 6HR MAX TEMP:  66;

$$

IAZ062-063-075>077-085>089-095>099-241900-
   SOUTHEAST IOWA

CITY           SKY/WX    TMP DP  RH WIND       PRES   REMARKS
BURLINGTON     SUNNY     66  40  38 S24G31    29.53F
6HR MIN TEMP:  39; 6HR MAX TEMP:  66;

FAIRFIELD *    SUNNY     70  36  28 S22G32    29.47F
FORT MADISON * SUNNY     66  39  37 S16G22    29.54F
KEOKUK *       SUNNY     70  37  30 S17G30    29.54F
OSKALOOSA *      N/A     68  38  33 SW25      29.46F
OTTUMWA        SUNNY     69  38  32 SW24G33   29.46F
6HR MIN TEMP:  46; 6HR MAX TEMP:  70;

WASHINGTON *   SUNNY     70  39  32 SW24G32   29.46F
$$

ABBREVIATIONS USED IN REMARKS
   TC - TEMPERATURES IN CELSIUS
  WCI - WIND CHILL INDEX
   HX - HEAT INDEX
  VSB - VISIBILITY
$$





USA.gov is the U.S. government's official web portal to all federal, state and local government web resources and services.